TimeCDT,TemperatureF,Dew PointF,Humidity,Sea Level PressureIn,VisibilityMPH,Wind Direction,Wind SpeedMPH,Gust SpeedMPH,PrecipitationIn,Events,Conditions,WindDirDegrees,DateUTC
12:15 AM,55.4,46.4,72,30.13,10.0,Calm,Calm,-,N/A,,Clear,0,2012-10-06 05:15:00
12:35 AM,53.6,46.4,77,30.12,10.0,Calm,Calm,-,N/A,,Clear,0,2012-10-06 05:35:00
12:55 AM,51.8,46.4,82,30.12,10.0,Calm,Calm,-,N/A,,Clear,0,2012-10-06 05:55:00
1:15 AM,51.8,44.6,76,30.11,10.0,Calm,Calm,-,N/A,,Clear,0,2012-10-06 06:15:00
1:55 AM,53.6,44.6,72,30.11,10.0,Calm,Calm,-,N/A,,Clear,0,2012-10-06 06:55:00
2:15 AM,53.6,44.6,72,30.11,10.0,Calm,Calm,-,N/A,,Clear,0,2012-10-06 07:15:00
2:35 AM,51.8,44.6,76,30.12,10.0,Calm,Calm,-,N/A,,Clear,0,2012-10-06 07:35:00
2:55 AM,53.6,44.6,72,30.11,10.0,Calm,Calm,-,N/A,,Clear,0,2012-10-06 07:55:00
3:15 AM,53.6,44.6,72,30.11,10.0,Calm,Calm,-,N/A,,Clear,0,2012-10-06 08:15:00
3:35 AM,51.8,44.6,76,30.11,10.0,Calm,Calm,-,N/A,,Clear,0,2012-10-06 08:35:00
3:55 AM,53.6,44.6,72,30.11,10.0,Calm,Calm,-,N/A,,Clear,0,2012-10-06 08:55:00
4:35 AM,51.8,44.6,76,30.10,10.0,Calm,Calm,-,N/A,,Clear,0,2012-10-06 09:35:00
4:55 AM,51.8,44.6,76,30.10,10.0,Calm,Calm,-,N/A,,Clear,0,2012-10-06 09:55:00
5:15 AM,53.6,46.4,77,30.11,10.0,Calm,Calm,-,N/A,,Clear,0,2012-10-06 10:15:00
5:35 AM,53.6,44.6,72,30.11,10.0,Calm,Calm,-,N/A,,Clear,0,2012-10-06 10:35:00
5:55 AM,53.6,46.4,77,30.11,10.0,Calm,Calm,-,N/A,,Clear,0,2012-10-06 10:55:00
6:15 AM,51.8,46.4,82,30.11,10.0,Calm,Calm,-,N/A,,Clear,0,2012-10-06 11:15:00
6:35 AM,51.8,46.4,82,30.11,10.0,Calm,Calm,-,N/A,,Clear,0,2012-10-06 11:35:00
6:55 AM,53.6,46.4,77,30.12,10.0,Calm,Calm,-,N/A,,Clear,0,2012-10-06 11:55:00
7:15 AM,51.8,46.4,82,30.12,10.0,Calm,Calm,-,N/A,,Clear,0,2012-10-06 12:15:00
7:35 AM,51.8,44.6,76,30.12,10.0,Calm,Calm,-,N/A,,Clear,0,2012-10-06 12:35:00
7:55 AM,48.2,44.6,87,30.13,10.0,Calm,Calm,-,N/A,,Clear,0,2012-10-06 12:55:00
8:15 AM,50.0,44.6,82,30.13,10.0,Calm,Calm,-,N/A,,Clear,0,2012-10-06 13:15:00
8:35 AM,55.4,46.4,72,30.14,10.0,Calm,Calm,-,N/A,,Clear,0,2012-10-06 13:35:00
8:55 AM,57.2,48.2,72,30.15,10.0,NE,11.5,-,N/A,,Clear,40,2012-10-06 13:55:00
9:15 AM,57.2,53.6,88,30.16,10.0,NE,13.8,-,N/A,,Clear,50,2012-10-06 14:15:00
9:35 AM,59.0,53.6,82,30.17,10.0,NE,16.1,20.7,N/A,,Clear,50,2012-10-06 14:35:00
9:55 AM,59.0,53.6,82,30.18,10.0,NE,16.1,23.0,N/A,,Clear,50,2012-10-06 14:55:00
10:15 AM,60.8,53.6,77,30.19,10.0,NE,18.4,23.0,N/A,,Clear,50,2012-10-06 15:15:00
10:35 AM,60.8,51.8,72,30.19,10.0,NE,15.0,-,N/A,,Clear,40,2012-10-06 15:35:00
10:55 AM,62.6,51.8,68,30.19,10.0,ENE,16.1,-,N/A,,Clear,60,2012-10-06 15:55:00
11:15 AM,62.6,51.8,68,30.19,10.0,NE,16.1,-,N/A,,Clear,50,2012-10-06 16:15:00
11:35 AM,64.4,51.8,64,30.19,10.0,ENE,15.0,18.4,N/A,,Clear,60,2012-10-06 16:35:00
11:55 AM,64.4,51.8,64,30.18,10.0,NE,13.8,-,N/A,,Clear,50,2012-10-06 16:55:00
12:15 PM,66.2,51.8,60,30.18,10.0,ENE,12.7,-,N/A,,Clear,60,2012-10-06 17:15:00
12:35 PM,66.2,50.0,56,30.18,10.0,NE,10.4,-,N/A,,Clear,50,2012-10-06 17:35:00
12:55 PM,68.0,50.0,52,30.17,10.0,East,9.2,-,N/A,,Clear,80,2012-10-06 17:55:00
1:15 PM,68.0,48.2,49,30.16,10.0,Calm,Calm,-,N/A,,Clear,0,2012-10-06 18:15:00
1:35 PM,69.8,48.2,46,30.15,10.0,Calm,Calm,-,N/A,,Clear,0,2012-10-06 18:35:00
1:55 PM,71.6,48.2,43,30.14,10.0,Calm,Calm,-,N/A,,Clear,0,2012-10-06 18:55:00
2:15 PM,73.4,48.2,41,30.13,10.0,Calm,Calm,-,N/A,,Clear,0,2012-10-06 19:15:00
2:35 PM,75.2,46.4,36,30.11,10.0,Calm,Calm,-,N/A,,Clear,0,2012-10-06 19:35:00
2:55 PM,77.0,46.4,34,30.10,10.0,Calm,Calm,-,N/A,,Clear,0,2012-10-06 19:55:00
3:15 PM,75.2,42.8,31,30.10,10.0,Calm,Calm,-,N/A,,Clear,0,2012-10-06 20:15:00
3:35 PM,78.8,42.8,28,30.09,10.0,Calm,Calm,-,N/A,,Clear,0,2012-10-06 20:35:00
3:55 PM,78.8,42.8,28,30.08,10.0,Calm,Calm,-,N/A,,Clear,0,2012-10-06 20:55:00
4:15 PM,78.8,42.8,28,30.07,10.0,Calm,Calm,-,N/A,,Clear,0,2012-10-06 21:15:00
4:35 PM,78.8,41.0,26,30.07,10.0,Calm,Calm,-,N/A,,Clear,0,2012-10-06 21:35:00
4:55 PM,78.8,42.8,28,30.07,10.0,Calm,Calm,-,N/A,,Clear,0,2012-10-06 21:55:00
5:15 PM,78.8,41.0,26,30.06,10.0,Calm,Calm,-,N/A,,Clear,0,2012-10-06 22:15:00
5:35 PM,78.8,39.2,24,30.06,10.0,Calm,Calm,-,N/A,,Clear,0,2012-10-06 22:35:00
5:55 PM,73.4,51.8,47,30.06,10.0,ENE,19.6,-,N/A,,Clear,60,2012-10-06 22:55:00
6:15 PM,69.8,51.8,53,30.06,10.0,ENE,17.3,20.7,N/A,,Clear,60,2012-10-06 23:15:00
6:35 PM,69.8,51.8,53,30.06,10.0,ENE,16.1,-,N/A,,Clear,60,2012-10-06 23:35:00
6:55 PM,66.2,51.8,60,30.07,10.0,ENE,17.3,21.9,N/A,,Clear,60,2012-10-06 23:55:00
7:15 PM,62.6,50.0,63,30.08,10.0,NNE,13.8,-,N/A,,Clear,30,2012-10-07 00:15:00
7:35 PM,59.0,50.0,72,30.09,10.0,NE,12.7,-,N/A,,Clear,50,2012-10-07 00:35:00
7:55 PM,57.2,48.2,72,30.10,10.0,NE,11.5,18.4,N/A,,Clear,40,2012-10-07 00:55:00
8:15 PM,55.4,50.0,82,30.11,10.0,NE,12.7,-,N/A,,Clear,50,2012-10-07 01:15:00
8:35 PM,53.6,50.0,88,30.11,10.0,NNE,9.2,-,N/A,,Clear,30,2012-10-07 01:35:00
8:55 PM,53.6,48.2,82,30.12,10.0,NE,9.2,-,N/A,,Clear,50,2012-10-07 01:55:00
9:15 PM,53.6,48.2,82,30.13,10.0,NE,13.8,19.6,N/A,,Clear,40,2012-10-07 02:15:00
9:35 PM,51.8,48.2,88,30.13,10.0,NE,16.1,-,N/A,,Clear,50,2012-10-07 02:35:00
9:55 PM,51.8,48.2,88,30.13,10.0,NE,16.1,21.9,N/A,,Clear,40,2012-10-07 02:55:00
10:15 PM,51.8,48.2,88,30.13,10.0,NE,16.1,21.9,N/A,,Clear,50,2012-10-07 03:15:00
10:35 PM,51.8,48.2,88,30.14,10.0,NE,17.3,20.7,N/A,,Clear,40,2012-10-07 03:35:00
10:55 PM,51.8,48.2,88,30.14,10.0,NE,16.1,20.7,N/A,,Clear,40,2012-10-07 03:55:00
11:15 PM,51.8,48.2,88,30.14,10.0,NE,17.3,23.0,N/A,,Clear,40,2012-10-07 04:15:00
11:35 PM,51.8,48.2,88,30.15,10.0,NE,13.8,23.0,N/A,,Mostly Cloudy,40,2012-10-07 04:35:00
11:55 PM,51.8,48.2,88,30.15,10.0,NE,13.8,23.0,N/A,,Scattered Clouds,40,2012-10-07 04:55:00